Regional Weather Roundup
Issued by NWS

Home | Current Version | Previous Version | Graphics & Text | Print | Product List | Glossary On
Versions: 1 2 3 4 5 6 7 8 9 10 11 12 13 14 15 16 17 18 19 20 21 22 23 24 25 26 27 28 29 30 31 32 33 34 35 36 37 38 39 40 41 42 43 44 45 46 47 48 49 50
000
ASUS43 KLOT 261609
RWRIL

ILLINOIS REGIONAL WEATHER ROUNDUP
NATIONAL WEATHER SERVICE CHICAGO/ROMEOVILLE IL
1100 AM CDT FRI AUG 26 2016

NOTE: "FAIR" INDICATES FEW OR NO CLOUDS BELOW 12,000 FEET WITH NO
SIGNIFICANT WEATHER AND/OR OBSTRUCTIONS TO VISIBILITY.

* THESE STATIONS ARE NOT UNDER NWS QUALITY CONTROL. THEY ALSO MAY NOT
  REPORT WEATHER SUCH AS PRECIPITATION OR FOG.

ILZ001-002-007-009-015-016-024-261700-
NORTHWEST ILLINOIS

CITY           SKY/WX    TMP DP  RH WIND       PRES   REMARKS
MOLINE         CLOUDY    73  61  65 E10       30.17F
STERLING*      CLOUDY    71  64  78 E9        30.18S
SAVANNA*       CLOUDY    71  63  76 NE5       30.18S
$$

ILZ003-004-008-010-011-017-018-261700-
NORTH CENTRAL ILLINOIS

CITY           SKY/WX    TMP DP  RH WIND       PRES   REMARKS
ROCKFORD       CLOUDY    73  58  59 NE8       30.19F
FREEPORT*      CLOUDY    70  61  73 E6        30.20F
ROCHELLE*      PTSUNNY   71  62  74 NE6       30.20S
DE KALB*       PTSUNNY   71  61  71 NE8       30.19F
$$

ILZ005-006-012>014-019>023-261700-
NORTHEAST ILLINOIS

CITY           SKY/WX    TMP DP  RH WIND       PRES   REMARKS
CHICAGO-OHARE  PTSUNNY   75  59  57 VRB5      30.18F
CHICAGO-MIDWAY PTSUNNY   77  62  59 VRB6      30.17F
AURORA         CLOUDY    75  63  66 N7        30.18F
LANSING*       MOSUNNY   76  69  78 NE7       30.18S
JOLIET*        CLOUDY    78  66  66 NE6       30.17F HX  80
WAUKEGAN       CLOUDY    74  60  61 CALM      30.19S
DUPAGE AIRPORT CLOUDY    74  59  59 NE8       30.18F
KANKAKEE*      MOSUNNY   76  67  73 NE7       30.17S
WHEELING       CLOUDY    76  57  51 N3        30.20S
MORRIS*        CLOUDY    76  66  70 CALM      30.16F
ROMEOVILLE*    CLOUDY    77  68  74 E3        30.18R
NORTHERLY ISL    N/A     73  64  73 N7          N/A
$$

LMZ740>746-261700-
SOUTHERN LAKE MICHIGAN

STATION/POSITION SKY/WX   TEMP    WIND        PRES    VSBY  WAVE
                          AIR SEA DIR/SP/G                  HT/PER
                          (F)     (DEG/KT/KT) (MB)    (MI)  (FT/S)
SOUTHERN BUOY              70 75  350/  6/  8 1021.7R         1/ 4
WILMETTE HARBOR            68 68  360/  6/  6   N/A           1/ 3
HARRISON CRIB              67     330/  9/ 10   N/A
BURNHAM HARBOR             72     330/  6/  8   N/A
CALUMET HARBOR             71     340/ 11/ 13 1021.4R
BURNS HARBOR               74      30/  7/  8 1022.0R
MICHIGAN CITY              73      10/  6/  6   N/A
MICHIGAN CITY 6N           74 75   20/  4/  6   N/A           2/ 4
ST. JOSEPH                 73 75  350/  4/  6 1021.7R         2/ 4
$$

ILZ025>027-034>036-040-047-049-050-058-095>099-261700-
WEST-CENTRAL ILLINOIS

CITY           SKY/WX    TMP DP  RH WIND       PRES   REMARKS
QUINCY         LGT RAIN  69  69 100 NE13      30.15S FOG
GALESBURG*     PTSUNNY   74  64  69 NE9       30.17S
MACOMB*        PTSUNNY   72  65  79 NE7       30.19S
JACKSONVILLE*  MOSUNNY   75  69  81 NE7       30.14R
PITTSFIELD*    CLOUDY    75  71  87 E7        30.16R
$$

ILZ028>032-037-038-041>044-048-051>054-059>061-261700-
CENTRAL ILLINOIS

CITY           SKY/WX    TMP DP  RH WIND       PRES   REMARKS
PONTIAC        CLOUDY    77  68  73 NE3       30.18S
BLOOMINGTON    PTSUNNY   78  69  73 NE9       30.17S HX  80
DECATUR        MOSUNNY   81  71  71 NE7       30.14S HX  85
PEORIA         MOSUNNY   73  69  87 NE8       30.16F
LACON*         CLOUDY    74  65  74 NE5       30.17F
LINCOLN*       SUNNY     78  70  75 NE8       30.14F HX  81
SPRINGFIELD    CLOUDY    78  69  73 NE9       30.14F HX  80
TAYLORVILLE    PTSUNNY   81  73  76 E6        30.13S HX  85
$$

ILZ033-039-045-046-055>057-062-063-261700-
EAST-CENTRAL ILLINOIS

CITY           SKY/WX    TMP DP  RH WIND       PRES   REMARKS
CHAMPAIGN      SUNNY     79  72  79 E8        30.15S HX  82
RANTOUL*       SUNNY     80  73  77 E8        30.15S HX  84
MATTOON        SUNNY     83  75  77 SE6       30.12S HX  90
PARIS*         MOSUNNY   83  76  78 CALM      30.14S HX  91
$$

ILZ079-100>102-261700-
SOUTHWEST ILLINOIS

CITY           SKY/WX    TMP DP  RH WIND       PRES   REMARKS
ALTON          PTSUNNY   81  72  74 S3        30.12R HX  84
BELLEVILLE     CLOUDY    84  76  76 S2        30.09S HX  94
CAHOKIA*       CLOUDY    83  74  74 VRB3      30.11R HX  89
SPARTA*        CLOUDY    86  76  72 CALM      30.11S HX  97
$$

ILZ064>066-069>071-074>076-080>082-084>086-088>090-092>094-261700-
SOUTH-CENTRAL ILLINOIS

CITY           SKY/WX    TMP DP  RH WIND       PRES   REMARKS
CARBONDALE     MOSUNNY   86  75  69 S3        30.11S HX  95
CAIRO*         SUNNY     87  77  72 CALM      30.10F HX  99
EFFINGHAM*     SUNNY     85  77  78 SE5       30.13S HX  96
MARION         PTSUNNY   90  77  66 S6        30.12F HX 102
MT. VERNON     SUNNY     90  75  62 SE6       30.12S HX 100
CENTRALIA*     SUNNY     88  80  76 S6        30.10  HX 103
SALEM*         SUNNY     88  77  71 S5        30.11S HX 100
METROPOLIS*    SUNNY     89  75  64 CALM      30.12F HX  99
$$

ILZ067-068-072-073-078-083-087-091-261700-
SOUTHEAST ILLINOIS

CITY           SKY/WX    TMP DP  RH WIND       PRES   REMARKS
LAWRENCEVILLE  SUNNY     87  75  67 SE5       30.12F HX  96
FLORA*         SUNNY     87  77  72 SE3       30.12S HX  99
FAIRFIELD*     SUNNY     87  78  76 CALM      30.11S HX 100
HARRISBURG*    SUNNY     88  78  72 SW3       30.12S HX 102
ROBINSON*      SUNNY     84  77  78 S5        30.13S HX  94
CARMI*         SUNNY     87  78  72 SE3       30.11F HX 100
$$

ABBREVIATIONS USED IN REMARKS
   TC - TEMPERATURE IN CELSIUS
  WCI - WIND CHILL INDEX
   HX - HEAT INDEX
  VSB - VISIBILITY
$$





USA.gov is the U.S. government's official web portal to all federal, state and local government web resources and services.